Weather History for Deer Park, WA

Change the Weather History Date:

Saturday, September 8, 2012

  Actual Average Record
Temperature  
Mean Temperature 62 °F 59 °F  
Max Temperature 86 °F 77 °F 92 °F (2011)
Min Temperature 37 °F 42 °F 28 °F (2001)
Degree Days  
Heating Degree Days 3 7  
Month to date heating degree days 51 46  
Since 1 July heating degree days 144 190  
Cooling Degree Days 0 1  
Month to date cooling degree days 0 8  
Year to date cooling degree days 226 183  
Growing Degree Days 12 (Base 50)    
Moisture  
Dew Point 39 °F    
Average Humidity 53    
Maximum Humidity 92    
Minimum Humidity 14    
Precipitation  
Precipitation 0.00 in 0.03 in 1.07 in (2003)
Month to date precipitation T 0.27  
Year to date precipitation 17.73 13.71  
Sea Level Pressure  
Sea Level Pressure 30.07 in    
Wind  
Wind Speed 4 mph (North)    
Max Wind Speed 14 mph    
Max Gust Speed 17 mph    
Visibility 10 miles    
Events      
T = Trace of Precipitation, MM = Missing Value Source: NWS Daily Summary

Daily Weather History Graph

Daily Weather History Graph

Search for Another Location

Airport:

Trip Planner

Search our weather history database for the weather conditions in past years. The results will help you decide how hot, cold, wet, or windy it might be!

Date:

Astronomy

Sep. 08, 2012 Rise Set
Actual Time 6:18 AM PDT 7:15 PM PDT
Civil Twilight 5:46 AM PDT 7:46 PM PDT
Nautical Twilight 5:08 AM PDT 8:24 PM PDT
Astronomical Twilight 4:28 AM PDT 9:04 PM PDT
Moon 11:32 PM PDT (9/8) 2:36 PM PDT (9/8)
Length of Visible Light 14h 00m
Length of Day
12h 57m
Waning Gibbous, 48% of the Moon is Illuminated
Sep 8
Waning Gibbous
Sep 15
New
Sep 22
First Quarter
Sep 29
Full
Oct 8
Last Quarter

Hourly Weather History & Observations

Time (PDT) Temp. Windchill Dew Point Humidity Pressure Visibility Wind Dir Wind Speed Gust Speed Precip Events Conditions
12:53 AM 51.1 °F - 39.9 °F 66% 30.17 in 10.0 mi NNW 3.5 mph - N/A   Clear
1:53 AM 50.0 °F - 41.0 °F 71% 30.17 in 10.0 mi Calm Calm - N/A   Clear
2:53 AM 41.0 °F - 37.0 °F 86% 30.18 in 10.0 mi Calm Calm - N/A   Clear
3:53 AM 39.9 °F 37.8 °F 36.0 °F 86% 30.18 in 10.0 mi WNW 3.5 mph - N/A   Clear
4:53 AM 39.0 °F - 37.0 °F 93% 30.18 in 10.0 mi Calm Calm - N/A   Clear
5:53 AM 41.0 °F - 37.0 °F 86% 30.18 in 10.0 mi Calm Calm - N/A   Clear
6:53 AM 39.0 °F - 37.0 °F 93% 30.19 in 10.0 mi Calm Calm - N/A   Clear
7:53 AM 53.1 °F - 45.0 °F 74% 30.19 in 10.0 mi Calm Calm - N/A   Clear
8:53 AM 63.0 °F - 46.0 °F 54% 30.18 in 10.0 mi NNE 5.8 mph - N/A   Clear
9:53 AM 66.9 °F - 46.9 °F 49% 30.16 in 10.0 mi ENE 5.8 mph - N/A   Clear
10:53 AM 73.0 °F - 46.9 °F 39% 30.14 in 10.0 mi Variable 3.5 mph - N/A   Clear
11:53 AM 73.9 °F - 46.0 °F 37% 30.14 in 10.0 mi South 4.6 mph - N/A   Clear
12:53 PM 78.1 °F - 42.1 °F 28% 30.10 in 10.0 mi Variable 4.6 mph - N/A   Clear
1:53 PM 81.0 °F - 39.0 °F 22% 30.07 in 10.0 mi South 4.6 mph - N/A   Clear
2:53 PM 82.9 °F - 34.0 °F 17% 30.05 in 10.0 mi SSW 3.5 mph - N/A   Clear
3:53 PM 84.9 °F - 30.9 °F 14% 30.02 in 10.0 mi Variable 3.5 mph - N/A   Clear
4:53 PM 84.0 °F - 33.1 °F 16% 29.99 in 10.0 mi ENE 3.5 mph - N/A   Clear
5:53 PM 84.9 °F - 30.0 °F 14% 29.97 in 10.0 mi NNE 5.8 mph - N/A   Clear
6:53 PM 73.0 °F - 36.0 °F 26% 29.96 in 10.0 mi NNW 3.5 mph - N/A   Clear
7:53 PM 68.0 °F - 37.0 °F 32% 29.94 in 10.0 mi North 6.9 mph - N/A   Clear
8:53 PM 70.0 °F - 39.0 °F 32% 29.91 in 10.0 mi NNE 8.1 mph - N/A   Clear
9:53 PM 68.0 °F - 39.9 °F 36% 29.92 in 10.0 mi North 3.5 mph - N/A   Partly Cloudy
10:53 PM 68.0 °F - 41.0 °F 37% 29.89 in 10.0 mi NNW 3.5 mph - N/A   Clear
11:53 PM 68.0 °F - 42.1 °F 39% 29.87 in 10.0 mi NE 11.5 mph - N/A   Clear